Weather History for Keokuk, IA

Change the Weather History Date:

Friday, October 5, 2012

  Actual Average Record
Temperature  
Mean Temperature 45 °F -  
Max Temperature 51 °F 70 °F 89 °F (1937)
Min Temperature 39 °F 49 °F 33 °F (2004)
Degree Days  
Heating Degree Days 20    
Moisture  
Dew Point 36 °F    
Average Humidity 67    
Maximum Humidity 82    
Minimum Humidity 43    
Precipitation  
Precipitation 0.00 in - - ()
Sea Level Pressure  
Sea Level Pressure 30.22 in    
Wind  
Wind Speed 4 mph (NW)    
Max Wind Speed 16 mph    
Max Gust Speed 24 mph    
Visibility 10 miles    
Events Rain    
Averages and records for this station are not official NWS values.
T = Trace of Precipitation, MM = Missing Value Source: NWS Daily Summary

Daily Weather History Graph

Daily Weather History Graph

Search for Another Location

Airport:

Trip Planner

Search our weather history database for the weather conditions in past years. The results will help you decide how hot, cold, wet, or windy it might be!

Date:

Astronomy

Oct. 05, 2012 Rise Set
Actual Time 7:06 AM CDT 6:40 PM CDT
Civil Twilight 6:39 AM CDT 7:07 PM CDT
Nautical Twilight 6:07 AM CDT 7:39 PM CDT
Astronomical Twilight 5:36 AM CDT 8:10 PM CDT
Moon 10:03 PM CDT (10/5) 12:15 PM CDT (10/5)
Length of Visible Light 12h 28m
Length of Day
11h 33m
Waning Gibbous, 74% of the Moon is Illuminated
Oct 5
Waning Gibbous
Oct 8
Last Quarter
Oct 15
New
Oct 21
First Quarter
Oct 29
Full

Hourly Weather History & Observations

Time (CDT) Temp. Windchill Dew Point Humidity Pressure Visibility Wind Dir Wind Speed Gust Speed Precip Events Conditions
12:15 AM 50.0 °F - 42.8 °F 76% 30.21 in 10.0 mi Calm Calm - N/A Rain Light Rain
12:35 AM 48.2 °F - 42.8 °F 82% 30.20 in 10.0 mi North 4.6 mph - N/A   Overcast
12:55 AM 48.2 °F - 42.8 °F 82% 30.21 in 10.0 mi NNW 8.1 mph - N/A   Mostly Cloudy
1:15 AM 50.0 °F - 42.8 °F 76% 30.23 in 10.0 mi NNW 5.8 mph - N/A   Mostly Cloudy
1:35 AM 50.0 °F - 41.0 °F 71% 30.23 in 10.0 mi NNW 4.6 mph - N/A   Overcast
1:55 AM 51.8 °F - 41.0 °F 67% 30.21 in 10.0 mi Calm Calm - N/A   Overcast
2:15 AM 50.0 °F - 41.0 °F 71% 30.22 in 10.0 mi North 3.5 mph - N/A   Overcast
2:35 AM 50.0 °F - 39.2 °F 66% 30.24 in 10.0 mi NNW 6.9 mph - N/A   Overcast
2:55 AM 50.0 °F - 39.2 °F 66% 30.24 in 10.0 mi North 3.5 mph - N/A   Overcast
3:15 AM 50.0 °F - 39.2 °F 66% 30.23 in 10.0 mi North 3.5 mph - N/A   Overcast
3:35 AM 50.0 °F - 37.4 °F 62% 30.23 in 10.0 mi Calm Calm - N/A   Mostly Cloudy
3:55 AM 48.2 °F - 39.2 °F 71% 30.23 in 10.0 mi North 3.5 mph - N/A   Mostly Cloudy
4:15 AM 48.2 °F - 39.2 °F 71% 30.24 in 10.0 mi NNW 3.5 mph - N/A   Scattered Clouds
4:35 AM 48.2 °F - 37.4 °F 66% 30.23 in 10.0 mi North 4.6 mph - N/A   Clear
4:55 AM 46.4 °F - 37.4 °F 71% 30.22 in 10.0 mi Calm Calm - N/A   Clear
5:15 AM 46.4 °F 45.2 °F 37.4 °F 71% 30.24 in 10.0 mi NW 3.5 mph - N/A   Clear
5:35 AM 46.4 °F 45.2 °F 37.4 °F 71% 30.24 in 10.0 mi NW 3.5 mph - N/A   Scattered Clouds
5:55 AM 46.4 °F - 37.4 °F 71% 30.24 in 10.0 mi Calm Calm - N/A   Scattered Clouds
6:15 AM 46.4 °F 45.2 °F 37.4 °F 71% 30.25 in 10.0 mi West 3.5 mph - N/A   Clear
6:35 AM 46.4 °F 45.2 °F 37.4 °F 71% 30.24 in 10.0 mi NW 3.5 mph - N/A   Clear
6:55 AM 46.4 °F 45.2 °F 37.4 °F 71% 30.25 in 10.0 mi WNW 3.5 mph - N/A   Clear
7:15 AM 46.4 °F 43.5 °F 37.4 °F 71% 30.22 in 10.0 mi NNW 5.8 mph - N/A   Scattered Clouds
7:35 AM 46.4 °F 45.2 °F 37.4 °F 71% 30.22 in 10.0 mi NW 3.5 mph - N/A Rain Rain
7:55 AM 46.4 °F 43.5 °F 37.4 °F 71% 30.22 in 10.0 mi NNW 5.8 mph - N/A Rain Light Rain
8:15 AM 46.4 °F 42.9 °F 37.4 °F 71% 30.23 in 10.0 mi NNW 6.9 mph - N/A Rain Light Rain
8:35 AM 46.4 °F 45.2 °F 37.4 °F 71% 30.24 in 10.0 mi NW 3.5 mph - N/A   Overcast
8:55 AM 46.4 °F - 37.4 °F 71% 30.24 in 10.0 mi Calm Calm - N/A   Mostly Cloudy
9:15 AM 48.2 °F - 37.4 °F 66% 30.25 in 10.0 mi Calm Calm - N/A Rain Light Rain
9:35 AM 48.2 °F - 35.6 °F 62% 30.25 in 10.0 mi NW 5.8 mph - N/A   Overcast
9:55 AM 48.2 °F - 37.4 °F 66% 30.25 in 10.0 mi NW 4.6 mph - N/A   Overcast
10:15 AM 48.2 °F - 37.4 °F 66% 30.24 in 10.0 mi Calm Calm - N/A   Overcast
10:35 AM 48.2 °F - 37.4 °F 66% 30.25 in 10.0 mi NNW 5.8 mph - N/A   Overcast
10:55 AM 50.0 °F - 35.6 °F 58% 30.24 in 10.0 mi NW 3.5 mph - N/A   Overcast
11:15 AM 50.0 °F - 35.6 °F 58% 30.24 in 10.0 mi NNW 8.1 mph - N/A   Overcast
11:35 AM 50.0 °F - 35.6 °F 58% 30.23 in 10.0 mi NNW 8.1 mph - N/A   Overcast
12:15 PM 50.0 °F - 33.8 °F 54% 30.21 in 10.0 mi NNW 6.9 mph - N/A   Overcast
12:35 PM 50.0 °F - 32.0 °F 50% 30.22 in 10.0 mi NW 9.2 mph - N/A   Overcast
12:55 PM 50.0 °F - 33.8 °F 54% 30.22 in 10.0 mi NW 6.9 mph - N/A   Overcast
1:35 PM 50.0 °F - 32.0 °F 50% 30.21 in 10.0 mi NW 8.1 mph - N/A   Overcast
1:55 PM 51.8 °F - 30.2 °F 44% 30.22 in 10.0 mi NW 15.0 mph 23.0 mph N/A   Overcast
2:15 PM 50.0 °F - 28.4 °F 43% 30.22 in 10.0 mi NNW 13.8 mph 24.2 mph N/A   Overcast
2:35 PM 50.0 °F - 30.2 °F 47% 30.22 in 10.0 mi NW 16.1 mph 23.0 mph N/A   Overcast
2:55 PM 46.4 °F 41.1 °F 33.8 °F 62% 30.22 in 10.0 mi NW 11.5 mph 19.6 mph N/A Rain Light Rain
3:15 PM 46.4 °F 42.9 °F 35.6 °F 66% 30.22 in 10.0 mi NW 6.9 mph - N/A   Mostly Cloudy
3:35 PM 46.4 °F 40.7 °F 35.6 °F 66% 30.22 in 10.0 mi NW 12.7 mph - N/A   Overcast
3:55 PM 46.4 °F 42.9 °F 35.6 °F 66% 30.21 in 10.0 mi WNW 6.9 mph - N/A   Overcast
4:15 PM 46.4 °F - 35.6 °F 66% 30.21 in 10.0 mi Calm Calm - N/A   Overcast
4:35 PM 46.4 °F 43.5 °F 35.6 °F 66% 30.21 in 10.0 mi NW 5.8 mph - N/A   Overcast
4:55 PM 46.4 °F 41.1 °F 33.8 °F 62% 30.21 in 10.0 mi WNW 11.5 mph 18.4 mph N/A Rain Rain
5:15 PM 46.4 °F 45.2 °F 35.6 °F 66% 30.20 in 10.0 mi WNW 3.5 mph - N/A   Overcast
5:35 PM 48.2 °F - 35.6 °F 62% 30.18 in 10.0 mi Calm Calm - N/A   Scattered Clouds
5:55 PM 46.4 °F 43.5 °F 35.6 °F 66% 30.19 in 10.0 mi WNW 5.8 mph - N/A   Mostly Cloudy
6:15 PM 48.2 °F - 35.6 °F 62% 30.19 in 10.0 mi WNW 4.6 mph - N/A   Overcast
6:35 PM 46.4 °F 42.9 °F 33.8 °F 62% 30.19 in 10.0 mi WNW 6.9 mph - N/A   Scattered Clouds
6:55 PM 44.6 °F 42.2 °F 33.8 °F 66% 30.19 in 10.0 mi West 4.6 mph - N/A   Clear
7:15 PM 44.6 °F 43.1 °F 33.8 °F 66% 30.20 in 10.0 mi West 3.5 mph - N/A   Clear
7:35 PM 44.6 °F 43.1 °F 33.8 °F 66% 30.20 in 10.0 mi West 3.5 mph - N/A   Clear
7:55 PM 42.8 °F 41.1 °F 33.8 °F 70% 30.21 in 10.0 mi WSW 3.5 mph - N/A   Clear
8:15 PM 42.8 °F 40.1 °F 32.0 °F 66% 30.21 in 10.0 mi WSW 4.6 mph - N/A   Clear
8:35 PM 41.0 °F 38.0 °F 32.0 °F 70% 30.22 in 10.0 mi WSW 4.6 mph - N/A   Clear
8:55 PM 39.2 °F 35.9 °F 30.2 °F 70% 30.21 in 10.0 mi WSW 4.6 mph - N/A   Clear
9:15 PM 39.2 °F 35.9 °F 32.0 °F 75% 30.21 in 10.0 mi WSW 4.6 mph - N/A   Clear
9:35 PM 41.0 °F 38.0 °F 32.0 °F 70% 30.21 in 10.0 mi WSW 4.6 mph - N/A   Clear
9:55 PM 39.2 °F 35.0 °F 30.2 °F 70% 30.22 in 10.0 mi West 5.8 mph - N/A   Clear
10:15 PM 39.2 °F 34.2 °F 32.0 °F 75% 30.21 in 10.0 mi West 6.9 mph - N/A   Clear
10:35 PM 39.2 °F 35.0 °F 32.0 °F 75% 30.21 in 10.0 mi WSW 5.8 mph - N/A   Clear
10:55 PM 39.2 °F 35.0 °F 32.0 °F 75% 30.21 in 10.0 mi WSW 5.8 mph - N/A   Clear
11:15 PM 39.2 °F 35.0 °F 32.0 °F 75% 30.21 in 10.0 mi WSW 5.8 mph - N/A   Clear
11:35 PM 39.2 °F 34.2 °F 30.2 °F 70% 30.20 in 10.0 mi WSW 6.9 mph - N/A   Clear
11:55 PM 41.0 °F 35.2 °F 32.0 °F 70% 30.20 in 10.0 mi West 9.2 mph - N/A   Clear